    Orbital elements:
    2021 RU10                                                Earth MOID = 0.0176 AU
    Epoch 2021 July 5.0 TT = JDT 2459400.5                  Veres                   
    M 351.19646              (2000.0)            P               Q                  
    n   0.30899946     Peri.  118.26619     +0.41435252     +0.91010099             
    a   2.1668602      Node   176.20055     -0.86056832     +0.39368610             
    e   0.5939057      Incl.    4.59484     -0.29619954     +0.12933461             
    P   3.19           H   25.36          G   0.15           U   8                  
    Residuals in seconds of arc
    210911 K88  0.1+  0.4-    210911 G02  0.0   0.5+    210912 C82  0.3+  0.1+
    210911 K88  0.3-  0.1-    210911 G02  0.3+  0.1-    210912 C82  0.3+  0.5+
    210911 K88  0.4+  0.7-    210911 203  0.0   0.1-    210912 C82  0.3-  0.1-
    210911 K88  0.0   0.1-    210912 104  0.1+  0.1+    210912 B49  0.8-  0.2-
    210911 K88  0.2-  0.2-    210912 104  0.2+  0.2+    210912 B49  0.6-  0.1-
    210911 K88  0.2-  0.3-    210912 104  0.1+  0.1+    210912 C82  0.5+  0.2-
    210911 033  0.0   0.0     210912 H21  0.2-  0.1+    210912 C82  0.8+  1.1+
    210911 033  0.0   0.1+    210912 H21  0.0   0.1-    210912 B37  0.6+  0.2+
    210911 033  0.3+  0.1+    210912 H21  0.0   0.0     210912 595  0.0   0.5+
    210911 K88  0.3+  0.2-    210912 H21  0.2-  0.2+    210912 595  0.0   0.5+
    210911 K88  0.1-  0.4-    210912 W33  0.3-  1.2+    210912 B37  0.0   0.1-
    210911 K88  0.7+  0.5-    210912 W33  1.9+  1.6-    210912 595  0.2-  0.5+
    210911 L74  0.9-  0.4+    210912 W33  1.3+  0.3-    210912 B37  0.2-  0.0
    210911 L01  0.0   0.1-    210912 W34  0.1+  0.2-    210912 K63  0.1+  0.2+
    210911 L01  0.2-  0.3+    210912 W34  0.1-  0.2+    210912 K63  0.2-  0.5-
    210911 L01  0.2+  0.1+    210912 W34  0.2+  0.3+    210912 K63  0.5-  0.3-
    210911 L01  0.0   0.1+    210912 033  0.2+  0.2+    210912 L06  0.0   0.0
    210911 I93  0.4+  0.0     210912 033  0.2+  0.2+    210912 L06  0.3+  0.0
    210911 L74  0.4+  0.5+    210912 033  0.2+  0.2+    210912 L06  0.1+  0.1+
    210911 203  0.2-  0.1-    210912 958  0.8-  0.6-    210912 Y00  0.3+  0.9-
    210911 I93  0.0   0.0     210912 958  0.0   0.2+    210913 Y00  0.4+  0.1+
    210911 I93  0.4-  0.0     210912 958  0.0   0.1+    210913 Y00  0.3-  0.1-
    210911 203  0.3-  0.1-    210912 B49  0.1+  0.3-
    210911 G02  0.0   0.5-    210912 B49  0.2-  0.3-
    
    Ephemeris:
    2021 RU10                a,e,i = 2.17, 0.59, 5                   q = 0.8799
    Date    TT    R. A. (2000) Decl.     Delta      r    Elong.  Phase     V
    2021 08 14    12 56 21.0 +09 31 42   0.2033  0.8948    49.6   120.4    26.5
    ...
    2021 08 29    13 42 26.4 +12 28 08   0.08469 0.9546    47.4   128.9    25.5
    ...
    2021 09 06    16 10 14.4 +20 37 01   0.02997 1.0015    76.4   101.9    21.5
    ...
    2021 09 12    22 15 27.3 +07 09 23   0.03728 1.0417   160.2    19.1    19.3
    2021 09 13    22 40 15.7 +04 47 14   0.04371 1.0487   166.1    13.3    19.4
    2021 09 14    22 58 26.6 +03 00 04   0.05059 1.0559   170.3     9.3    19.6
    ...
    2021 09 20    23 48 37.1 -02 01 07   0.09613 1.1005   179.2     0.7    20.6
    ...
    2021 09 28    00 09 27.9 -04 02 16   0.1623  1.1636   173.7     5.4    22.2
    ...
    2021 10 13    00 23 04.1 -04 46 09   0.3017  1.2888   162.5    13.4    24.1
    
    M. P. C. Staff               (C) Copyright 2021 MPC           M.P.E.C. 2021-R283
    


    Read MPEC 2021-R282 Read MPEC 2021-R284


    MPEC number:

    Enter an MPEC number in one of the following forms:

    • 1997-B01 (the full form)
    • J97B01 (the packed version of the full form)
    • B01 (the abbreviated form)